Location: Perryvale
(54.4667°N, 113.3833°W)
Time: 05:38:38
(UTC+00:00)

deb Explorer IX - Pass Details

Date: 28 May 2024
Orbit: 511 x 884 km, 38.7° (Epoch: 23 June)

Event Time Altitude Azimuth Distance (km) Brightness Sun altitude
Rises 05:27:53 0° 241° (WSW) 3,130 ? -9.5°
Reaches altitude 10° 05:32:11 10° 208° (SSW) 2,097 ? -9.8°
Maximum altitude 05:33:36 11° 191° (S) 1,980 ? -9.9°
Enters shadow 05:34:36 11° 179° (S) 1,996 ? -10.0°
